Regional Weather Roundup
Issued by NWS

Home | Current Version | Previous Version | Graphics & Text | Print | Product List | Glossary On
Versions: 1 2 3 4 5 6 7 8 9 10 11 12 13 14 15 16 17 18 19 20 21 22 23 24 25 26 27 28 29 30 31 32 33 34 35 36 37 38 39 40 41 42 43 44 45 46 47 48 49 50
000
ASUS43 KFSD 272002
RWRSD

WEATHER ROUNDUP FOR SOUTH DAKOTA
NATIONAL WEATHER SERVICE SIOUX FALLS SD
300 PM CDT THU AUG 27 2015

NOTE: "FAIR" INDICATES FEW OR NO CLOUDS BELOW 12,000 FEET WITH NO
SIGNIFICANT WEATHER AND/OR OBSTRUCTIONS TO VISIBILITY.


SDZ001>005-009-010-012>017-272100-
NORTHWEST AND NORTH CENTRAL SOUTH DAKOTA

CITY           SKY/WX    TMP DP  RH WIND       PRES   REMARKS
BUFFALO          N/A     85  63  47 VRB6      29.90F
FAITH            N/A     75  58  55 S13       29.99F
MOBRIDGE       CLOUDY    75  69  81 S5        29.95F
$$

SDZ012>016-024>037-041>051-057-063-072>074-272100-
SOUTHWEST AND SOUTH CENTRAL SOUTH DAKOTA

CITY           SKY/WX    TMP DP  RH WIND       PRES   REMARKS
RAPID CTY ARPT CLOUDY    78  57  48 N12       30.02F
PIERRE         CLOUDY    75  65  70 NE7       29.95F
CUSTER         CLOUDY    68  51  54 N6        30.16F
PHILIP         CLOUDY    70  65  84 E7        29.98F
PINE RIDGE     CLOUDY    75  58  55 N13       30.02S
WINNER         CLOUDY    82  67  60 NE15      29.92F
$$

SDZ004>011-016>023-039-040-272100-
NORTHEAST SOUTH DAKOTA

CITY           SKY/WX    TMP DP  RH WIND       PRES   REMARKS
ABERDEEN       CLOUDY    80  69  69 CALM      29.95S
WATERTOWN      CLOUDY    72  66  81 S9        29.99F
BROOKINGS      CLOUDY    73  68  83 SE9       30.02S
$$

SDZ017-020-022-023-036>040-048>070-272100-
SOUTHEAST SOUTH DAKOTA

CITY           SKY/WX    TMP DP  RH WIND       PRES   REMARKS
SIOUX FALLS    CLOUDY    77  66  68 SE8       29.97F
HURON          CLOUDY    80  69  69 E9        29.93F
CHAMBERLAIN    PTSUNNY   79  67  66 E10G16    29.92S
MITCHELL       PTSUNNY   78  68  71 SE12      29.95F
YANKTON        PTSUNNY   79  68  69 E13       29.90F
$$

ABBREVIATIONS USED IN REMARKS
   TC - TEMPERATURE IN CELSIUS
  WCI - WIND CHILL INDEX
   HX - HEAT INDEX
  VSB - VISIBILITY



USA.gov is the U.S. government's official web portal to all federal, state and local government web resources and services.